Location: Prague
(50.0830°N, 14.4670°E)
Time: 18:17:47
(UTC+01:00)

BEESAT 2 - Pass Details

Date: 10 December 2021
Orbit: 498 x 513 km, 64.9° (Epoch: 27 January)

Event Time Altitude Azimuth Distance (km) Brightness Sun altitude
Exits shadow 05:06:16 19° 173° (S) 1,288 ? -25.0°
Drops below altitude 10° 05:07:28 10° 165° (SSE) 1,734 ? -24.8°
Sets 05:09:41 0° 159° (SSE) 2,614 ? -24.5°
